Overview Statistics Trail Chart Weather Telemetry Raw packets
 

This is the latest recevied weather packets stored in our database for station/object KO4LCK. If no packets are shown the sender has not sent any weather packets the latest 10 day(s).

<< 11 12 13 14 15 16 17 >>
Time Temp. Humidity Pressure Rain* Wind** Luminosity Snow
1788571382 27.78° C 75% 1015.7 hPa 0 mm - 0 W/m² -
1788571079 27.78° C 76% 1015.8 hPa 0 mm - 0 W/m² -
1788570774 27.78° C 76% 1015.6 hPa 0 mm - 0 W/m² -
1788570469 27.78° C 76% 1015.6 hPa 0 mm - 0 W/m² -
1788570164 28.33° C 75% 1015.9 hPa 0 mm - 0 W/m² -
1788569861 28.33° C 75% 1015.8 hPa 0 mm - 0 W/m² -
1788569556 28.89° C 74% 1015.5 hPa 0 mm - 0 W/m² -
1788569256 28.89° C 73% 1015.5 hPa 0 mm - 0 W/m² -
1788568951 28.89° C 73% 1015.6 hPa 0 mm - 0 W/m² -
1788568651 28.89° C 71% 1015.8 hPa 0 mm - 0 W/m² -
1788568347 29.44° C 71% 1015.5 hPa 0 mm - 0 W/m² -
1788568042 29.44° C 70% 1015.7 hPa 0 mm - 0 W/m² -
1788567743 30° C 69% 1015.6 hPa 0 mm - 0 W/m² -
1788567443 30° C 68% 1015.5 hPa 0 mm - 0 W/m² -
1788567142 30.56° C 66% 1015.5 hPa 0 mm - 1 W/m² -
1788566838 31.11° C 62% 1015.4 hPa 0 mm - 1 W/m² -
1788566533 31.11° C 63% 1015.4 hPa 0 mm - 2 W/m² -
1788566228 31.67° C 62% 1015.5 hPa 0 mm - 4 W/m² -
1788565923 31.67° C 60% 1015.4 hPa 0 mm - 5 W/m² -
1788565623 32.22° C 58% 1015.4 hPa 0 mm - 8 W/m² -
1788565319 32.78° C 58% 1015.3 hPa 0 mm - 12 W/m² -
1788565014 32.78° C 56% 1015.3 hPa 0 mm - 16 W/m² -
1788564710 33.33° C 55% 1015.4 hPa 0 mm - 20 W/m² -
1788564406 33.33° C 53% 1015.2 hPa 0 mm - 26 W/m² -
1788564102 33.33° C 53% 1015.1 hPa 0 mm - 32 W/m² -

* Rain latest hour (hover to see other rain measurements)
** Current wind speed in m/s (hover to see current wind gust speed)